Weather History for Rapid City, SD

Change the Weather History Date:

Friday, October 4, 2013

  Actual Average Record
Temperature  
Mean Temperature 34 °F 52 °F  
Max Temperature 37 °F 67 °F 94 °F (1963)
Min Temperature 32 °F 38 °F 28 °F (1999)
Degree Days  
Heating Degree Days 30 13  
Month to date heating degree days 38 49  
Since 1 July heating degree days 145 273  
Cooling Degree Days 0 0  
Month to date cooling degree days 0 0  
Year to date cooling degree days 724 633  
Moisture  
Dew Point 32 °F    
Average Humidity 95    
Maximum Humidity 100    
Minimum Humidity 89    
Precipitation  
Precipitation 0.75 in 0.06 in 1.74 in (2013)
Month to date precipitation 0.92 0.23  
Year to date precipitation 16.16 14.15  
Snow  
Snow 0.00 in 0.10 in - ()
Month to date snowfall 0.0 0.1  
Since 1 July snowfall 0.0 0.3  
Since 1 September snowfall 0.0 0.3  
Snow Depth -    
Sea Level Pressure  
Sea Level Pressure 30.06 in    
Wind  
Wind Speed 33 mph (North)    
Max Wind Speed 41 mph    
Max Gust Speed 51 mph    
Visibility 2 miles    
Events Fog , Rain , Snow , Thunderstorm    
T = Trace of Precipitation, MM = Missing Value Source: NWS Daily Summary

Daily Weather History Graph

Daily Weather History Graph

Search for Another Location

Airport:

Trip Planner

Search our weather history database for the weather conditions in past years. The results will help you decide how hot, cold, wet, or windy it might be!

Date:

Astronomy

Oct. 04, 2013 Rise Set
Actual Time 6:53 AM MDT 6:27 PM MDT
Civil Twilight 6:25 AM MDT 6:55 PM MDT
Nautical Twilight 5:51 AM MDT 7:29 PM MDT
Astronomical Twilight 5:17 AM MDT 8:02 PM MDT
Moon 6:32 AM MDT (10/4) 6:09 PM MDT (10/4)
Length of Visible Light 12h 30m
Length of Day
11h 33m
Waning Crescent, 0% of the Moon is Illuminated
Oct 4
Waning Crescent
Oct 4
New
Oct 11
First Quarter
Oct 18
Full
Oct 26
Last Quarter

Hourly Weather History & Observations

Time (MDT) Temp. Windchill Dew Point Humidity Pressure Visibility Wind Dir Wind Speed Gust Speed Precip Events Conditions
12:52 AM 37.9 °F 26.6 °F 36.0 °F 93% 30.10 in 4.0 mi North 25.3 mph 39.1 mph 0.23 in Rain Rain
12:59 AM 37.4 °F 25.2 °F 35.6 °F 93% 30.06 in 3.0 mi North 28.8 mph 39.1 mph 0.03 in Rain Heavy Rain
1:10 AM 37.4 °F 25.6 °F 35.6 °F 93% 30.06 in 4.0 mi NNE 26.5 mph 36.8 mph 0.06 in Rain Rain
1:40 AM 37.4 °F 24.6 °F 33.8 °F 87% 30.05 in 3.0 mi North 32.2 mph 40.3 mph 0.14 in Rain Rain
1:50 AM 37.4 °F 25.4 °F 35.6 °F 93% 30.06 in 4.0 mi North 27.6 mph 38.0 mph 0.18 in Rain Rain
1:52 AM 37.0 °F 25.1 °F 35.1 °F 93% 30.09 in 4.0 mi NNE 26.5 mph 38.0 mph 0.18 in Rain Rain
2:52 AM 37.0 °F 24.9 °F 35.1 °F 93% 30.07 in 4.0 mi NNE 27.6 mph 35.7 mph 0.10 in Rain Rain
3:20 AM 37.4 °F 25.4 °F 33.8 °F 87% 30.03 in 2.5 mi North 27.6 mph 39.1 mph 0.04 in Snow Light Snow
3:33 AM 35.6 °F 22.5 °F 33.8 °F 93% 30.02 in 3.0 mi North 29.9 mph 36.8 mph 0.05 in Snow Light Snow
3:52 AM 36.0 °F 23.5 °F 34.0 °F 93% 30.06 in 4.0 mi North 27.6 mph 38.0 mph 0.07 in Snow Light Snow
4:52 AM 36.0 °F 24.2 °F 34.0 °F 93% 30.06 in 3.0 mi North 24.2 mph 38.0 mph 0.04 in Snow Light Snow
5:06 AM 35.6 °F 23.4 °F 33.8 °F 93% 30.03 in 2.0 mi North 25.3 mph 34.5 mph 0.03 in Snow Light Snow
5:36 AM 35.6 °F 23.2 °F 33.8 °F 93% 30.03 in 3.0 mi North 26.5 mph 36.8 mph 0.08 in Snow , Thunderstorm Light Snow
5:52 AM 34.0 °F 21.0 °F 33.1 °F 96% 30.09 in 3.0 mi NNW 26.5 mph 36.8 mph 0.11 in Snow , Thunderstorm Light Snow
6:01 AM 33.8 °F 21.0 °F 32.0 °F 93% 30.04 in 2.0 mi North 25.3 mph 36.8 mph 0.02 in Snow , Thunderstorm Light Snow
6:03 AM 33.8 °F 20.5 °F 32.0 °F 93% 30.04 in 1.8 mi North 27.6 mph 36.8 mph 0.03 in Snow Light Snow
6:52 AM 33.1 °F 20.6 °F 30.9 °F 92% 30.11 in 1.2 mi NNW 23.0 mph 32.2 mph 0.11 in Snow , Thunderstorm Light Snow
7:09 AM 33.8 °F 20.8 °F 30.2 °F 87% 30.05 in 0.8 mi North 26.5 mph 31.1 mph 0.05 in Snow Light Snow
7:52 AM 33.1 °F 18.9 °F 30.9 °F 92% 30.13 in 0.5 mi NNW 31.1 mph 40.3 mph 0.11 in Fog , Snow Snow
7:59 AM 33.8 °F 19.4 °F 30.2 °F 87% 30.06 in 0.2 mi NNW 33.4 mph 44.9 mph 0.03 in Fog , Snow Heavy Snow
8:38 AM 33.8 °F 19.2 °F 30.2 °F 87% 30.05 in 0.5 mi NNW 34.5 mph 44.9 mph 0.13 in Fog , Snow Snow
8:52 AM 33.1 °F 17.6 °F 30.9 °F 92% 30.12 in 0.5 mi NNW 38.0 mph 47.2 mph 0.13 in Fog , Snow Snow
9:11 AM 33.8 °F 18.8 °F 30.2 °F 87% 30.04 in 0.2 mi NNW 36.8 mph 43.7 mph 0.00 in Fog , Snow Heavy Snow
9:52 AM 33.1 °F 18.2 °F 30.9 °F 92% 30.10 in 0.2 mi North 34.5 mph 50.6 mph 0.07 in Fog Fog
10:32 AM 32.0 °F 16.5 °F 30.2 °F 93% 30.04 in 0.2 mi NNW 35.7 mph 47.2 mph 0.06 in Snow , Thunderstorm Snow
10:47 AM 33.8 °F 18.8 °F 30.2 °F 87% 30.04 in 0.2 mi North 36.8 mph 47.2 mph 0.06 in Snow Snow
10:52 AM 33.1 °F 18.0 °F 30.9 °F 92% 30.12 in 0.2 mi North 35.7 mph 47.2 mph 0.06 in Snow Snow
11:52 AM 32.0 °F 15.6 °F 30.9 °F 96% 30.10 in 0.2 mi North 41.4 mph 48.3 mph 0.06 in Snow Snow
1:52 PM 32.0 °F 16.2 °F 30.9 °F 96% 30.08 in 0.2 mi NNW 38.0 mph 51.8 mph 0.11 in Snow Snow
2:52 PM 32.0 °F 15.6 °F 32.0 °F 100% 30.08 in 0.2 mi NNW 41.4 mph 46.0 mph 0.03 in Snow Snow
3:11 PM 32.0 °F 15.6 °F 30.2 °F 93% 29.99 in 0.2 mi NNW 41.4 mph 51.8 mph 0.06 in Snow , Thunderstorm Snow
3:19 PM 32.0 °F 15.8 °F 32.0 °F 100% 30.00 in 0.2 mi NNW 40.3 mph 51.8 mph 0.06 in Snow Snow
3:49 PM 32.0 °F 15.2 °F 30.2 °F 93% 29.98 in 0.2 mi NNW 43.7 mph 51.8 mph 0.11 in Snow , Thunderstorm Snow
3:52 PM 32.0 °F 15.2 °F 30.9 °F 96% 30.06 in 0.2 mi NNW 43.7 mph 55.2 mph 0.11 in Snow , Thunderstorm Snow